Huntington, WV

2:17 AM EST on December 18, 2017 (GMT -0500)
Tri-State / Ferguson

Weather History for KHTS - April, 2012

Change the Weather History Date:

Friday, April 20, 2012

  Actual Average Record
Temperature  
Mean Temperature 62 °F 58 °F  
Max Temperature 78 °F 70 °F 89 °F (1976)
Min Temperature 45 °F 46 °F 25 °F (1926)
Degree Days  
Heating Degree Days 3 8  
Month to date heating degree days 187 221  
Since 1 July heating degree days 3509 4318  
Cooling Degree Days 0 1  
Month to date cooling degree days 11 19  
Year to date cooling degree days 54 24  
Growing Degree Days 12 (Base 50)    
Moisture  
Dew Point 49 °F    
Average Humidity 67    
Maximum Humidity 93    
Minimum Humidity 41    
Precipitation  
Precipitation 0.00 in 0.12 in 3.54 in (1901)
Month to date precipitation 0.34 2.23  
Year to date precipitation 7.51 12.17  
Snow  
Snow 0.00 in - - ()
Month to date snowfall 0.0  
Since 1 September snowfall 5.5  
Snow Depth 0.00 in    
Sea Level Pressure  
Sea Level Pressure 29.84 in    
Wind  
Wind Speed 6 mph (South)    
Max Wind Speed 14 mph    
Max Gust Speed 21 mph    
Visibility 10 miles    
Events      
T = Trace of Precipitation, MM = Missing Value Source: NWS Daily Summary

Daily Weather History Graph

Daily Weather History Graph

Search for Another Location

Airport or City:

Trip Planner

Search our weather history database for the weather conditions in past years. The results will help you decide how hot, cold, wet, or windy it might be!

Date:

Astronomy

Apr. 20, 2012 Rise Set
Actual Time 6:46 AM EDT 8:11 PM EDT
Civil Twilight 6:19 AM EDT 8:39 PM EDT
Nautical Twilight 5:45 AM EDT 9:12 PM EDT
Astronomical Twilight 5:11 AM EDT 9:48 PM EDT
Moon 6:09 AM EDT (4/20) 7:55 PM EDT (4/20)
Length of Visible Light 14h 20m
Length of Day
13h 25m
Waning Crescent, 0% of the Moon is Illuminated
Apr 20
Waning Crescent
Apr 21
New
Apr 29
First Quarter
May 5
Full
May 12
Last Quarter

Hourly Weather History & Observations

Time (EDT) Temp. Dew Point Humidity Pressure Visibility Wind Dir Wind Speed Gust Speed Precip Events Conditions
12:51 AM 52.0 °F 46.9 °F 83% 29.94 in 10.0 mi East 3.5 mph - N/A   Clear
1:31 AM 51.8 °F 46.4 °F 82% 29.93 in 10.0 mi East 4.6 mph - N/A   Partly Cloudy
1:51 AM 51.1 °F 46.9 °F 86% 29.92 in 10.0 mi ESE 5.8 mph - N/A   Partly Cloudy
2:51 AM 50.0 °F 46.0 °F 86% 29.89 in 10.0 mi East 4.6 mph - N/A   Clear
3:51 AM 51.1 °F 46.0 °F 83% 29.88 in 10.0 mi East 3.5 mph - N/A   Clear
4:51 AM 48.2 °F 46.4 °F 93% 29.89 in 10.0 mi ESE 3.5 mph - N/A   Clear
5:51 AM 46.9 °F 45.0 °F 93% 29.88 in 9.0 mi Calm Calm - N/A   Clear
6:51 AM 46.0 °F 45.0 °F 96% 29.88 in 5.0 mi Calm Calm - N/A   Clear
7:51 AM 51.1 °F 48.9 °F 92% 29.90 in 10.0 mi SSW 3.5 mph - N/A   Clear
8:51 AM 57.0 °F 50.0 °F 77% 29.90 in 10.0 mi SSW 6.9 mph - N/A   Clear
9:51 AM 64.0 °F 51.1 °F 63% 29.90 in 10.0 mi SSW 10.4 mph - N/A   Clear
10:51 AM 69.1 °F 53.1 °F 57% 29.90 in 10.0 mi SSW 9.2 mph - N/A   Clear
11:51 AM 73.0 °F 53.1 °F 49% 29.88 in 10.0 mi South 10.4 mph - N/A   Clear
12:51 PM 75.9 °F 53.1 °F 45% 29.85 in 10.0 mi SSW 10.4 mph - N/A   Scattered Clouds
1:51 PM 75.9 °F 52.0 °F 43% 29.83 in 10.0 mi SSE 11.5 mph 16.1 mph N/A   Partly Cloudy
2:51 PM 75.9 °F 50.0 °F 40% 29.81 in 10.0 mi SSW 5.8 mph - N/A   Mostly Cloudy
3:51 PM 75.9 °F 50.0 °F 40% 29.79 in 10.0 mi SW 12.7 mph 18.4 mph N/A   Overcast
4:51 PM 75.9 °F 50.0 °F 40% 29.78 in 10.0 mi SW 11.5 mph 18.4 mph N/A   Overcast
5:51 PM 75.9 °F 50.0 °F 40% 29.77 in 10.0 mi SSW 9.2 mph - N/A   Mostly Cloudy
6:51 PM 75.9 °F 50.0 °F 40% 29.76 in 10.0 mi Variable 6.9 mph - N/A   Scattered Clouds
7:51 PM 73.0 °F 50.0 °F 44% 29.75 in 10.0 mi SSW 4.6 mph - N/A   Mostly Cloudy
8:51 PM 71.1 °F 50.0 °F 47% 29.75 in 10.0 mi Calm Calm - N/A   Mostly Cloudy
9:51 PM 68.0 °F 50.0 °F 52% 29.75 in 10.0 mi Calm Calm - N/A   Mostly Cloudy
10:51 PM 64.4 °F 51.8 °F 64% 29.76 in 10.0 mi South 3.5 mph - N/A   Mostly Cloudy
11:51 PM 62.1 °F 52.0 °F 70% 29.74 in 10.0 mi SW 3.5 mph - N/A   Clear